Tracking 29493 objects as of 8-Sep-2024
HD Live streaming from Space Station
objects crossing your sky now

FENGYUN 1C DEB

Track FENGYUN 1C DEB now!
10-day predictions


NORAD ID: 30331
Int'l Code: 1999-025AAS
Perigee: 840.8 km
Apogee: 982.8 km
Inclination: 99.0 °
Period: 103.1 minutes
Semi major axis: 7282 km
RCS: 0.0259 m2 (small)
Launch date: May 10, 1999
Source: People's Republic of China (PRC)
Launch site: Taiyaun Space Center, China (TSC)

Note: This is SATELLITE DEBRIS
Your satellite tracking list
Your tracking list is empty




NASA's NSSDC Master Catalog

Two Line Element Set (TLE):
1 30331U 99025AAS 24251.93297652  .00002310  00000-0  16248-2 0  9991
2 30331  99.0144 290.6522 0097455 195.3394 288.0543 13.96872671896833
Source of the keplerian elements: AFSPC